[Date Prev][Date Next][Thread Prev][Thread Next] - [Date Index][Thread Index][Author Index]

2 Line ISS Keps 1-9



ISS 
1 25544U 98067A   05009.43640568  .00024400  00000-0  18232-3 0  5502
2 25544  51.6405 352.5941 0003252 176.1661 321.8669 15.72560983350720
----
Via the sarex mailing list at AMSAT.ORG courtesy of AMSAT-NA.
To unsubscribe, send "unsubscribe sarex" to Majordomo@amsat.org



AMSAT Top AMSAT Home